sat.trackr.live / text

‹ back to catalog

CYGFM05

NORAD 41884 · 2016-078A

PAYLOAD INACTIVE UNKNOWN

§ Identity

Operator
Country
US
Launch date
2016-12-15
Launch site
ERAS
Launch vehicle
Mass (kg)
RCS (m²)
0.19

Purposes: earth_obs

External: N2YO · Heavens-Above · Gunter

§ Orbital elements

Epoch: 2026-09-11T18:44:22.749504Z

Period
92.28 min
Inclination
34.9565°
Eccentricity
0.0005559
Mean motion
15.60430546 rev/d
Perigee alt
382.7 km
Apogee alt
390.2 km
Semi-major
6,764.5 km
B*
2.7992e-4
RAAN
45.5674°
Arg perigee
265.2157°
Mean anomaly
94.7933°
Rev number
54,227

§ Raw data

CYGFM051 41884U 16078A   26254.78081886  .00023824  00000+0  27992-3 0  99922 41884  34.9565  45.5674 0005559 265.2157  94.7933 15.60430546542271

JSON: /api/v1/satellites/41884 · /tle

For live sub-satellite position, see the globe view (requires WebGL).

§ Visibility from observer

Set your observer location to see the next 7 days of passes ≥ 10°. The values pass through the URL so the page stays shareable.

No JS? Fill the form by hand. The geolocation button needs JavaScript.